Find Amazonas 5

NORAD ID: 42934 Int'l Des: 2017-053 Owner: HISPM/HISP Country: BR operational
HEOCIRCULARGSO

Aktuelle Ansicht

3D-Globus wird geladen...

Über Amazonas 5

Beschreibung wird geladen...

Nächste Überflüge

Passes for default location (London). Set your location on the main map for personalized predictions.

Höhenverlauf

Loading altitude history...

Zweizeiliger Elementsatz

1 42934U 17053A 26150.77624786 -.00000270 00000-0 00000+0 0 9998
2 42934 0.0336 318.5376 0003128 66.3583 81.8518 1.00272605 31877
Epoch: 30. Mai 2026 • Age: 12 hours

Aktueller Status

Höhe 35787.9 km
Geschwindigkeit 3.07 km/s
Subsatellitenpunkt -0.03°S, 61.03°W
Startdatum 11. Sept. 2017
Alter 8.7 years
Typ other

Technische Details

Klassifizierung Payload
Masse 5900.00 kg
Trockenmasse 3500.00 kg
Gesamtmasse 5900.00 kg
Länge 8.10 m
Durchmesser 2.90 m
Spannweite 26.00 m
Form Box + 2 pan
Hersteller SSL
Bus-Typ SSL-1300
Phasenstatus In Orbit
Besitzer/Staat HISPM/HISP/BR

Most Searched